Regional Weather Roundup
Issued by NWS

Home |  Current Version |  Previous Version |  Text Only |  Print | Product List |  Glossary On
Versions: 1 2 3 4 5 6 7 8 9 10 11 12 13 14 15 16 17 18 19 20 21 22 23 24 25 26 27 28 29 30 31 32 33 34 35 36 37 38 39 40 41 42 43 44 45 46 47 48 49 50
099
ASUS43 KLSX 182210
RWRMO

WEATHER SUMMARY FOR MISSOURI
NATIONAL WEATHER SERVICE SPRINGFIELD MO
500 PM CDT SAT MAY 18 2024

NOTE: "FAIR" INDICATES FEW OR NO CLOUDS BELOW 12,000 FEET WITH NO
       SIGNIFICANT WEATHER AND/OR OBSTRUCTIONS TO VISIBILITY.
       CURRENT SKY AND/OR WEATHER CONDITIONS ARE NOT AVAILABLE FOR
       CHILLICOTHE AND FARMINGTON.

MOZ001>031-035>038-043-044-053-054-182300-
...NORTHERN AND WESTERN MISSOURI...

CITY           SKY/WX    TMP DP  RH WIND       PRES   REMARKS
KANSAS CTY INT MOSUNNY   86  65  49 SW9       29.83S
KANSAS C DTWN  SUNNY     87  64  46 SW6       29.82S
LEE`S SUMMIT   SUNNY     86  66  51 SW12      29.84F
ST JOSEPH      MOSUNNY   92  62  36 W15       29.80S HX  92
CHILLICOTHE      N/A     86  65  49 SW9       29.83S
KIRKSVILLE     SUNNY     83  62  49 SW8       29.85S

$$
MOZ066>068-077>081-088>096-101>105-182300-
...SOUTHWEST MISSOURI...

CITY           SKY/WX    TMP DP  RH WIND       PRES   REMARKS
SPRINGFIELD    SUNNY     83  62  49 W6        29.88F
JOPLIN         MOSUNNY   85  61  44 W6        29.88F
BRANSON        MOSUNNY   82  59  44 CALM      29.91F

$$
MOZ032>034-039>042-045>050-055>058-069>072-182300-
...CENTRAL MISSOURI...

CITY           SKY/WX    TMP DP  RH WIND       PRES   REMARKS
COLUMBIA       SUNNY     84  62  47 SW8       29.87R
JEFFERSON CITY SUNNY     86  60  41 SW7       29.85S
ROLLA          SUNNY     83  63  50 VRB3      29.89S
SEDALIA        SUNNY     84  59  42 S9        29.86F
WARRENSBURG    SUNNY     84  61  45 S12       29.85S
OSAGE BEACH    SUNNY     84  62  47 VRB7      29.88S

$$
MOZ051-052-059>065-182300-
...EAST CENTRAL MISSOURI...

CITY           SKY/WX    TMP DP  RH WIND       PRES   REMARKS
ST LOUIS INTL  MOSUNNY   88  60  38 VRB7      29.86S
SPIRIT OF STL  SUNNY     84  60  44 CALM      29.84F
ST CHARLES     SUNNY     87  59  38 W5        29.84S

$$
MOZ072>076-082>087-097>100-106>115-182300-
...SOUTH CENTRAL AND SOUTHEAST MISSOURI...

CITY           SKY/WX    TMP DP  RH WIND       PRES   REMARKS
CAPE GIRARDEAU MOSUNNY   85  65  51 NE7       29.85S
FARMINGTON     MOSUNNY   83  62  49 NW6       29.89S
POPLAR BLUFF   SUNNY     85  63  47 MISG      29.85S
WEST PLAINS    MOSUNNY   85  59  41 VRB3      29.90F

$$